C7179 Weather Reports


time (UTC)temp
F
wind
direction
speed
knots
gust
knots
rain 1hr
in
rain 24hr
in
rain mn
in
humidity
%
barometer
mb
20240222112027 63 189 1.7 5.2 0.00 0.00 0.00 85 1007.2
20240222111528 63 205 1.7 5.2 0.00 0.00 0.00 84 1007.4
20240222111025 63 176 1.7 5.2 0.00 0.00 0.00 84 1007.4
20240222110523 63 226 0.9 5.2 0.00 0.00 0.00 84 1007.3
20240222110025 63 259 0.9 7.8 0.00 0.00 0.00 83 1007.6
20240222105522 63 197 2.6 7.8 0.00 0.00 0.00 83 1007.4
20240222105025 63 130 2.6 7.8 0.00 0.00 0.00 83 1007.3
20240222104526 64 187 3.5 8.7 0.00 0.00 0.00 83 1007.3
20240222104025 64 233 2.6 8.7 0.00 0.00 0.00 83 1007.1
20240222103525 64 153 2.6 7.0 0.00 0.00 0.00 83 1007.3
20240222103024 64 167 2.6 7.8 0.00 0.00 0.00 83 1007.2
20240222102525 64 150 2.6 7.8 0.00 0.00 0.00 82 1007.4
20240222102022 64 195 3.5 7.8 0.00 0.00 0.00 82 1007.5
20240222101524 64 214 2.6 7.0 0.00 0.00 0.00 82 1007.5
20240222101021 64 172 2.6 7.0 0.00 0.00 0.00 82 1007.5
20240222100522 64 155 3.5 7.0 0.00 0.00 0.00 82 1007.6
20240222100038 64 211 2.6 7.0 0.00 0.00 0.00 82 1007.6
20240222095521 64 146 2.6 7.0 0.00 0.00 0.00 82 1007.4
20240222095024 64 155 2.6 6.1 0.00 0.00 0.00 82 1007.6
20240222094529 65 144 2.6 7.8 0.00 0.00 0.00 81 1007.7
20240222094025 65 185 2.6 8.7 0.00 0.00 0.00 81 1007.7
20240222093525 65 187 4.3 8.7 0.00 0.00 0.00 81 1007.9
20240222093027 65 217 3.5 9.6 0.00 0.00 0.00 81 1007.9
20240222092526 65 190 4.3 9.6 0.00 0.00 0.00 81 1008.0
20240222092026 65 137 2.6 7.0 0.00 0.00 0.00 80 1008.1
20240222091527 65 165 2.6 7.0 0.00 0.00 0.00 80 1008.1
20240222091025 65 134 3.5 7.8 0.00 0.00 0.00 80 1008.1
20240222090524 66 197 2.6 7.8 0.00 0.00 0.00 80 1008.3
20240222090051 66 207 3.5 7.8 0.00 0.00 0.00 79 1008.3
20240222085522 66 216 3.5 10.4 0.00 0.00 0.00 79 1008.5
20240222085022 66 128 4.3 10.4 0.00 0.00 0.00 79 1008.4
20240222084530 66 224 3.5 7.0 0.00 0.00 0.00 79 1008.5
20240222084022 66 174 3.5 6.1 0.00 0.00 0.00 79 1008.7
20240222083522 66 201 2.6 6.1 0.00 0.00 0.00 78 1008.6
20240222083037 66 197 3.5 10.4 0.00 0.00 0.00 78 1008.7
20240222082522 66 161 2.6 10.4 0.00 0.00 0.00 78 1008.8
20240222082025 66 205 2.6 7.0 0.00 0.00 0.00 78 1008.8
20240222081527 66 229 2.6 7.8 0.00 0.00 0.00 78 1008.9
20240222081025 66 245 2.6 7.8 0.00 0.00 0.00 78 1008.9
20240222080525 66 203 2.6 7.8 0.00 0.00 0.00 78 1009.0
20240222080038 66 169 2.6 9.6 0.00 0.00 0.00 78 1009.1
20240222075525 66 207 3.5 10.4 0.00 0.00 0.00 78 1009.2
20240222075023 66 153 2.6 10.4 0.00 0.00 0.00 78 1009.2
20240222074525 66 200 5.2 10.4 0.00 0.00 0.00 78 1009.2
20240222074022 66 186 3.5 8.7 0.00 0.00 0.00 78 1009.2
20240222073525 66 214 4.3 8.7 0.00 0.00 0.00 78 1009.2
20240222073032 66 155 3.5 10.4 0.00 0.00 0.00 78 1009.2
20240222072524 66 216 3.5 10.4 0.00 0.00 0.00 78 1009.3
20240222072021 66 120 4.3 10.4 0.00 0.00 0.00 78 1009.3
20240222071523 66 203 4.3 10.4 0.00 0.00 0.00 78 1009.3
20240222071022 66 183 4.3 9.6 0.00 0.00 0.00 78 1009.3
20240222070522 66 219 3.5 11.3 0.00 0.00 0.00 78 1009.2
20240222070040 66 162 5.2 11.3 0.00 0.00 0.00 78 1009.2
20240222065522 66 236 4.3 9.6 0.00 0.00 0.00 78 1009.2
20240222065024 66 170 4.3 8.7 0.00 0.00 0.00 78 1009.3
20240222064525 66 193 3.5 8.7 0.00 0.00 0.00 78 1009.3
20240222064025 66 159 3.5 10.4 0.00 0.00 0.00 78 1009.4
20240222063524 66 182 5.2 10.4 0.00 0.00 0.00 78 1009.5
20240222063025 66 117 4.3 10.4 0.00 0.00 0.00 78 1009.6
20240222062525 66 204 5.2 11.3 0.00 0.00 0.00 78 1009.5
20240222062025 66 173 4.3 11.3 0.00 0.00 0.00 78 1009.6
20240222061525 66 158 5.2 13.0 0.00 0.00 0.00 78 1009.5
20240222061025 66 284 3.5 13.0 0.00 0.00 0.00 78 1009.6
20240222060521 66 188 5.2 13.0 0.00 0.00 0.00 78 1009.3
20240222060026 66 193 3.5 8.7 0.00 0.00 0.00 77 1009.4
20240222055522 66 191 4.3 9.6 0.00 0.00 0.00 77 1009.3
20240222055022 66 176 3.5 11.3 0.00 0.00 0.00 76 1009.3
20240222054525 66 187 5.2 11.3 0.00 0.00 0.00 76 1009.4
20240222054022 66 198 4.3 9.6 0.00 0.00 0.00 76 1009.4
20240222053522 67 195 4.3 9.6 0.00 0.00 0.00 75 1009.5
20240222053031 67 217 4.3 10.4 0.00 0.00 0.00 75 1009.6
20240222052522 67 180 4.3 10.4 0.00 0.00 0.00 74 1009.6
20240222052022 67 197 4.3 9.6 0.00 0.00 0.00 74 1009.7
20240222051529 67 218 4.3 9.6 0.00 0.00 0.00 74 1009.6
20240222051025 67 226 3.5 7.8 0.00 0.00 0.00 73 1009.6
20240222050521 68 153 2.6 10.4 0.00 0.00 0.00 73 1009.6
20240222050026 68 185 3.5 10.4 0.00 0.00 0.00 72 1009.8
20240222045523 68 190 5.2 10.4 0.00 0.00 0.00 72 1009.7
20240222045022 68 196 5.2 10.4 0.00 0.00 0.00 71 1009.8
20240222044529 68 163 2.6 9.6 0.00 0.00 0.00 71 1009.9
20240222044023 68 189 3.5 9.6 0.00 0.00 0.00 71 1009.8
20240222043521 68 193 3.5 9.6 0.00 0.00 0.00 71 1009.7
20240222043028 69 205 3.5 9.6 0.00 0.00 0.00 70 1009.7
20240222042521 69 187 4.3 9.6 0.00 0.00 0.00 70 1009.6
20240222042021 69 209 2.6 7.8 0.00 0.00 0.00 70 1009.6
20240222041524 69 220 4.3 7.8 0.00 0.00 0.00 70 1009.6
20240222041022 69 184 2.6 8.7 0.00 0.00 0.00 69 1009.6
20240222040521 69 158 3.5 9.6 0.00 0.00 0.00 69 1009.7
20240222040024 69 196 1.7 9.6 0.00 0.00 0.00 69 1009.6
20240222035523 69 186 4.3 9.6 0.00 0.00 0.00 68 1009.7
20240222035021 70 154 2.6 7.8 0.00 0.00 0.00 68 1009.8
20240222034531 70 218 1.7 7.8 0.00 0.00 0.00 68 1009.6
20240222034025 70 172 3.5 7.8 0.00 0.00 0.00 67 1009.6
20240222033522 70 142 3.5 7.8 0.00 0.00 0.00 67 1009.5
20240222033028 70 152 2.6 9.6 0.00 0.00 0.00 67 1009.5
20240222032524 70 222 3.5 9.6 0.00 0.00 0.00 66 1009.5
20240222032025 70 181 3.5 7.8 0.00 0.00 0.00 66 1009.6
20240222031529 70 220 4.3 7.0 0.00 0.00 0.00 66 1009.5
20240222031025 70 205 3.5 9.6 0.00 0.00 0.00 66 1009.6
20240222030521 71 182 4.3 10.4 0.00 0.00 0.00 65 1009.5
20240222030030 71 170 6.1 10.4 0.00 0.00 0.00 65 1009.4
20240222025522 71 175 5.2 10.4 0.00 0.00 0.00 65 1009.5
20240222025022 71 124 5.2 11.3 0.00 0.00 0.00 65 1009.4
20240222024529 71 192 4.3 11.3 0.00 0.00 0.00 65 1009.6
20240222024022 71 215 4.3 9.6 0.00 0.00 0.00 64 1009.7
20240222023521 71 113 3.5 7.8 0.00 0.00 0.00 64 1009.8
20240222023023 71 229 4.3 9.6 0.00 0.00 0.00 64 1009.8
20240222022522 71 181 4.3 9.6 0.00 0.00 0.00 64 1010.0
20240222022019 71 187 4.3 9.6 0.00 0.00 0.00 63 1010.0
20240222021533 71 108 3.5 7.0 0.00 0.00 0.00 63 1010.0
20240222021021 71 219 2.6 7.8 0.00 0.00 0.00 63 1010.1
20240222020527 71 309 3.5 9.6 0.00 0.00 0.00 63 1010.0
20240222020027 72 176 4.3 9.6 0.00 0.00 0.00 63 1009.9
20240222015521 72 179 4.3 9.6 0.00 0.00 0.00 62 1009.8
20240222015022 72 209 3.5 8.7 0.00 0.00 0.00 62 1009.8
20240222014524 72 201 4.3 8.7 0.00 0.00 0.00 62 1009.8
20240222014022 72 226 3.5 8.7 0.00 0.00 0.00 62 1009.8
20240222013522 72 210 4.3 15.6 0.00 0.00 0.00 62 1009.7
20240222013025 72 218 6.1 15.6 0.00 0.00 0.00 62 1009.6
20240222012522 72 153 4.3 10.4 0.00 0.00 0.00 61 1009.6
20240222012022 72 194 2.6 10.4 0.00 0.00 0.00 61 1009.6
20240222011523 73 193 3.5 10.4 0.00 0.00 0.00 61 1009.5
20240222011020 73 170 3.5 7.0 0.00 0.00 0.00 60 1009.4
20240222010525 73 161 2.6 8.7 0.00 0.00 0.00 60 1009.4
20240222010023 73 121 2.6 8.7 0.00 0.00 0.00 59 1009.2
20240222005521 73 165 2.6 8.7 0.00 0.00 0.00 57 1009.2
20240222005021 73 164 2.6 8.7 0.00 0.00 0.00 55 1009.1
20240222004523 74 148 4.3 8.7 0.00 0.00 0.00 54 1009.3
20240222004021 74 187 4.3 12.2 0.00 0.00 0.00 54 1009.5
20240222003522 74 205 5.2 12.2 0.00 0.00 0.00 54 1009.2
20240222003021 74 192 4.3 9.6 0.00 0.00 0.00 54 1009.1
20240222002522 74 224 4.3 8.7 0.00 0.00 0.00 55 1009.3
20240222002021 74 150 4.3 10.4 0.00 0.00 0.00 55 1009.4
20240222001521 75 136 4.3 12.2 0.00 0.00 0.00 55 1009.3
20240222001021 75 208 5.2 12.2 0.00 0.00 0.00 55 1009.2
20240222000523 75 175 4.3 12.2 0.00 0.00 0.00 54 1009.0
20240222000026 75 179 5.2 12.2 0.00 0.00 0.00 54 1008.8
20240221235526 75 184 6.1 10.4 0.00 0.00 0.00 54 1008.8
20240221235023 76 247 2.6 9.6 0.00 0.00 0.00 54 1008.7
20240221234531 76 155 2.6 9.6 0.00 0.00 0.00 53 1008.8
20240221234021 76 176 5.2 10.4 0.00 0.00 0.00 53 1009.0
20240221233522 76 198 2.6 10.4 0.00 0.00 0.00 53 1009.2
20240221233033 76 176 5.2 10.4 0.00 0.00 0.00 53 1009.2
20240221232521 77 245 5.2 9.6 0.00 0.00 0.00 53 1009.2
20240221232021 77 199 3.5 7.8 0.00 0.00 0.00 52 1009.2
20240221231540 77 198 4.3 9.6 0.00 0.00 0.00 52 1009.3
20240221231023 77 149 4.3 9.6 0.00 0.00 0.00 51 1009.3
20240221230523 78 221 3.5 12.2 0.00 0.00 0.00 51 1009.4
20240221230030 78 79 4.3 12.2 0.00 0.00 0.00 51 1009.3
20240221225522 78 115 5.2 11.3 0.00 0.00 0.00 50 1009.4
20240221225023 78 214 4.3 11.3 0.00 0.00 0.00 50 1009.3
20240221224527 78 148 6.1 11.3 0.00 0.00 0.00 49 1009.3
20240221224022 78 202 5.2 11.3 0.00 0.00 0.00 49 1009.5
20240221223523 78 199 5.2 11.3 0.00 0.00 0.00 49 1009.6
20240221223028 79 155 6.1 13.9 0.00 0.00 0.00 48 1009.7
20240221222523 79 183 5.2 13.9 0.00 0.00 0.00 48 1009.7
20240221222021 79 195 5.2 13.0 0.00 0.00 0.00 48 1009.7
20240221221537 79 158 5.2 13.0 0.00 0.00 0.00 47 1009.9
20240221221025 80 207 3.5 11.3 0.00 0.00 0.00 48 1009.9
20240221220521 80 196 7.0 11.3 0.00 0.00 0.00 46 1009.9
20240221220025 80 195 4.3 11.3 0.00 0.00 0.00 47 1009.8
20240221215522 80 217 6.1 11.3 0.00 0.00 0.00 46 1009.9
20240221215022 80 198 6.1 11.3 0.00 0.00 0.00 45 1010.0
20240221214526 81 205 4.3 12.2 0.00 0.00 0.00 45 1010.4
20240221214021 80 188 5.2 14.8 0.00 0.00 0.00 46 1010.6
20240221213521 80 195 6.1 14.8 0.00 0.00 0.00 46 1010.7
20240221213039 80 193 6.1 11.3 0.00 0.00 0.00 47 1010.8
20240221212524 80 198 7.0 12.2 0.00 0.00 0.00 47 1010.8
20240221212021 80 171 5.2 12.2 0.00 0.00 0.00 47 1011.0
20240221211534 80 169 6.1 11.3 0.00 0.00 0.00 47 1011.1
20240221211021 80 255 3.5 11.3 0.00 0.00 0.00 47 1011.1
20240221210616 80 175 6.1 11.3 0.00 0.00 0.00 47 1011.2
20240221210025 81 222 3.5 9.6 0.00 0.00 0.00 47 1011.3
20240221205522 80 229 3.5 13.0 0.00 0.00 0.00 47 1011.2
20240221205027 80 238 6.1 13.0 0.00 0.00 0.00 46 1011.4
20240221204526 80 146 6.1 10.4 0.00 0.00 0.00 47 1011.5
20240221204022 80 203 5.2 10.4 0.00 0.00 0.00 47 1011.8
20240221203525 80 150 4.3 9.6 0.00 0.00 0.00 47 1012.0
20240221203028 80 176 4.3 8.7 0.00 0.00 0.00 46 1012.1
20240221202524 80 150 2.6 10.4 0.00 0.00 0.00 49 1012.3
20240221202024 79 222 5.2 10.4 0.00 0.00 0.00 48 1012.3
20240221201531 79 191 4.3 10.4 0.00 0.00 0.00 49 1012.5
20240221201028 79 224 5.2 9.6 0.00 0.00 0.00 49 1012.6
20240221200524 79 155 4.3 9.6 0.00 0.00 0.00 50 1012.6
20240221200027 79 158 4.3 9.6 0.00 0.00 0.00 50 1012.8
20240221195527 79 195 4.3 11.3 0.00 0.00 0.00 51 1012.9
20240221195023 78 191 5.2 13.9 0.00 0.00 0.00 51 1013.0
20240221194538 78 195 5.2 13.9 0.00 0.00 0.00 51 1013.2
20240221194049 78 222 5.2 10.4 0.00 0.00 0.00 51 1013.3
20240221193522 78 159 4.3 12.2 0.00 0.00 0.00 52 1013.4
20240221193031 77 207 4.3 12.2 0.00 0.00 0.00 53 1013.5
20240221192522 77 191 6.1 12.2 0.00 0.00 0.00 53 1013.6
20240221192021 77 139 5.2 12.2 0.00 0.00 0.00 53 1013.7
20240221191533 77 151 4.3 12.2 0.00 0.00 0.00 55 1013.9
20240221191025 77 236 5.2 10.4 0.00 0.00 0.00 54 1014.1
20240221190522 77 219 5.2 12.2 0.00 0.00 0.00 54 1014.2
20240221190037 76 175 5.2 12.2 0.00 0.00 0.00 56 1014.4
20240221185524 76 137 3.5 12.2 0.00 0.00 0.00 56 1014.5
20240221185023 76 207 5.2 10.4 0.00 0.00 0.00 56 1014.6
20240221184526 76 203 3.5 7.8 0.00 0.00 0.00 58 1014.9
20240221184022 76 193 4.3 9.6 0.00 0.00 0.00 58 1015.0
20240221183525 75 218 4.3 12.2 0.00 0.00 0.00 59 1015.3
20240221183035 75 95 6.1 12.2 0.00 0.00 0.00 58 1015.3
20240221182528 75 279 4.3 10.4 0.00 0.00 0.00 58 1015.5
20240221182025 75 167 4.3 8.7 0.00 0.00 0.00 59 1015.6
20240221181526 74 217 4.3 10.4 0.00 0.00 0.00 60 1015.7
20240221181025 74 199 4.3 10.4 0.00 0.00 0.00 60 1015.8
20240221180525 74 87 5.2 10.4 0.00 0.00 0.00 61 1015.8
20240221180039 73 217 5.2 9.6 0.00 0.00 0.00 62 1015.9
20240221175525 73 216 5.2 9.6 0.00 0.00 0.00 62 1016.0
20240221175022 73 207 4.3 9.6 0.00 0.00 0.00 63 1016.1
20240221174526 73 86 5.2 8.7 0.00 0.00 0.00 63 1016.1
20240221174026 73 218 3.5 10.4 0.00 0.00 0.00 64 1016.1
20240221173522 72 163 5.2 14.8 0.00 0.00 0.00 65 1016.3
20240221173037 72 216 4.3 14.8 0.00 0.00 0.00 65 1016.4
20240221172522 72 156 5.2 9.6 0.00 0.00 0.00 65 1016.4
20240221172021 71 188 5.2 10.4 0.00 0.00 0.00 65 1016.4
20240221171527 71 167 3.5 10.4 0.00 0.00 0.00 66 1016.6
20240221171023 71 190 3.5 10.4 0.00 0.00 0.00 66 1016.6
20240221170521 70 216 4.3 9.6 0.00 0.00 0.00 68 1016.6
20240221170026 70 252 5.2 9.6 0.00 0.00 0.00 69 1016.7
20240221165522 70 187 4.3 9.6 0.00 0.00 0.00 69 1016.8
20240221165021 70 146 4.3 9.6 0.00 0.00 0.00 69 1016.8
20240221164533 69 139 4.3 11.3 0.00 0.00 0.00 70 1016.9
20240221164021 68 214 4.3 11.3 0.00 0.00 0.00 71 1017.0
20240221163523 68 166 4.3 11.3 0.00 0.00 0.00 71 1017.1
20240221163022 68 136 5.2 9.6 0.00 0.00 0.00 72 1017.1
20240221162522 68 191 6.1 9.6 0.00 0.00 0.00 73 1017.2
20240221162028 68 158 4.3 8.7 0.00 0.00 0.00 73 1017.3
20240221161534 67 207 3.5 8.7 0.00 0.00 0.00 74 1017.3
20240221161022 67 199 4.3 9.6 0.00 0.00 0.00 75 1017.4
20240221160522 66 217 5.2 10.4 0.00 0.00 0.00 75 1017.5
20240221160025 66 214 4.3 10.4 0.00 0.00 0.00 76 1017.6
20240221155522 66 193 4.3 10.4 0.00 0.00 0.00 76 1017.6
20240221155024 66 146 6.1 9.6 0.00 0.00 0.00 77 1017.6
20240221154523 65 235 4.3 10.4 0.00 0.00 0.00 77 1017.7
20240221154021 65 212 4.3 10.4 0.00 0.00 0.00 78 1017.6
20240221153522 65 154 2.6 9.6 0.00 0.00 0.00 79 1017.6
20240221153026 65 241 4.3 10.4 0.00 0.00 0.00 79 1017.6
20240221152522 65 183 4.3 10.4 0.00 0.00 0.00 80 1017.7
20240221152022 64 158 3.5 10.4 0.00 0.00 0.00 81 1017.8
20240221151526 64 46 4.3 10.4 0.00 0.00 0.00 81 1017.6
20240221151022 64 195 2.6 9.6 0.00 0.00 0.00 82 1017.7
20240221150521 63 214 3.5 9.6 0.00 0.00 0.00 82 1017.7
20240221150035 63 189 3.5 7.8 0.00 0.00 0.00 83 1017.6
20240221145521 63 217 4.3 8.7 0.00 0.00 0.00 83 1017.6
20240221145022 62 178 4.3 8.7 0.00 0.00 0.00 84 1017.5
20240221144523 62 214 3.5 7.8 0.00 0.00 0.00 85 1017.6
20240221144022 62 175 4.3 7.8 0.00 0.00 0.00 85 1017.6
20240221143526 61 214 3.5 8.7 0.00 0.00 0.00 86 1017.6
20240221143033 61 127 4.3 8.7 0.00 0.00 0.00 86 1017.4
20240221142525 61 49 2.6 7.0 0.00 0.00 0.00 86 1017.5
20240221142023 60 200 3.5 7.0 0.00 0.00 0.00 87 1017.5
20240221141541 60 177 2.6 8.7 0.00 0.00 0.00 87 1017.5
20240221141025 60 192 3.5 8.7 0.00 0.00 0.00 87 1017.5
20240221140526 60 155 1.7 7.0 0.00 0.00 0.00 88 1017.5
20240221140026 60 191 2.6 7.0 0.00 0.00 0.00 88 1017.6
20240221135524 59 185 2.6 7.0 0.00 0.00 0.00 88 1017.5
20240221135023 59 195 2.6 7.0 0.00 0.00 0.00 88 1017.6
20240221134527 59 124 1.7 7.0 0.00 0.00 0.00 88 1017.6
20240221134029 59 162 3.5 7.0 0.00 0.00 0.00 88 1017.5
20240221133526 59 210 2.6 6.1 0.00 0.00 0.00 88 1017.5
20240221133026 59 214 1.7 7.8 0.00 0.00 0.00 88 1017.5
20240221132528 59 186 1.7 7.8 0.00 0.00 0.00 88 1017.5
20240221132025 59 228 3.5 7.8 0.00 0.00 0.00 88 1017.6
20240221131526 58 205 3.5 7.0 0.00 0.00 0.00 88 1017.6
20240221131025 58 189 2.6 7.0 0.00 0.00 0.00 88 1017.5
20240221130525 58 183 2.6 6.1 0.00 0.00 0.00 88 1017.5
20240221130032 58 200 2.6 5.2 0.00 0.00 0.00 87 1017.5
20240221125521 58 191 2.6 6.1 0.00 0.00 0.00 87 1017.5
20240221125022 58 145 2.6 6.1 0.00 0.00 0.00 87 1017.3
20240221124526 58 220 1.7 5.2 0.00 0.00 0.00 87 1017.3
20240221124025 58 189 1.7 4.3 0.00 0.00 0.00 87 1017.4
20240221123524 58 178 1.7 4.3 0.00 0.00 0.00 87 1017.4
20240221123033 58 162 1.7 5.2 0.00 0.00 0.00 87 1017.3
20240221122522 58 153 2.6 5.2 0.00 0.00 0.00 86 1017.3
20240221122023 58 191 2.6 5.2 0.00 0.00 0.00 86 1017.2
20240221121539 58 211 2.6 5.2 0.00 0.00 0.00 86 1017.2
20240221121023 58 191 1.7 4.3 0.00 0.00 0.00 86 1017.0
20240221120525 58 218 0.9 4.3 0.00 0.00 0.00 86 1017.1
20240221120029 58 208 1.7 4.3 0.00 0.00 0.00 86 1017.1
20240221115526 58 154 1.7 5.2 0.00 0.00 0.00 86 1017.0
20240221115025 58 152 1.7 5.2 0.00 0.00 0.00 86 1017.1
20240221114528 58 195 0.9 3.5 0.00 0.00 0.00 85 1017.1
20240221114024 58 158 0.9 4.3 0.00 0.00 0.00 85 1017.1
20240221113525 58 223 1.7 4.3 0.00 0.00 0.00 85 1017.0
20240221113025 58 207 1.7 4.3 0.00 0.00 0.00 85 1016.9
20240221112524 58 189 0.9 3.5 0.00 0.00 0.00 85 1016.9